[[{"header":{"parameterUnit":"m.s-1","parameterCategory":1,"la1":30.2991,"la2":30.254,"lo1":-89.0895,"lo2":-89.0444,"dy":0.0017,"dx":0.0017,"nx":28,"ny":28,"refTime":"2024-04-27T21:00:00:Z","depth":0,"parameterNumber":2,"parameterNumberName":"U-component_of_WINDS"},"data":[0,0,0,0,0,0,0,0,0,0,0,0,0,0,0,0,0,0,0,0,0,0,0,0,0,0,0,0,0,0,0,0,0,0,0,0,0,0,0,0,0,0,0,0,0,0,0,0,0,0,0,0,0,0,0,0,0,0,-6.8947,-6.8949,0,-6.9139,-6.9141,-6.9143,-6.911,-6.9107,-6.9103,-6.91,-6.9295,-6.9303,-6.9312,0,0,0,0,0,0,0,0,0,0,0,0,0,-6.8552,-6.8559,-6.8947,-6.895,-6.8952,-6.9138,-6.9141,-6.9144,-6.9111,-6.9107,-6.9103,-6.9099,-6.9293,-6.9302,-6.9312,0,0,0,0,0,0,0,0,0,0,0,0,0,-6.8732,-6.8562,-6.8947,-6.8958,-6.8961,-6.9138,-6.9141,-6.9144,-6.9112,-6.9107,-6.9102,-6.9097,-6.9289,-6.9301,-6.9314,-6.9491,0,0,-6.9352,-6.9357,0,0,0,0,0,0,0,0,-6.8721,-6.8746,-6.8954,-6.8958,-6.8961,-6.9095,-6.9073,-6.9261,-6.9113,-6.9054,-6.91,-6.9094,-6.9233,-6.925,-6.9297,-6.95,-6.9509,-6.9353,-6.936,-6.9366,-6.9369,0,0,0,0,0,0,0,-6.8709,-6.8738,-6.9023,-6.8957,-6.8962,-6.8953,-6.8973,-6.9109,-6.9169,-6.9059,-6.9057,-6.908,-6.9234,-6.9285,-6.9301,-6.9512,-6.9353,-6.9364,-6.9371,-6.9376,-6.9869,-6.9875,0,0,0,0,0,0,-6.8693,-6.8728,-6.9017,-6.9029,-6.8827,-6.8964,-6.8987,-6.9057,-6.9168,-6.918,-6.9084,-6.9078,-6.9266,-6.9286,-6.9308,-6.9521,-6.9366,-6.9377,-6.9385,-6.9864,-6.9871,-6.9877,0,0,0,0,0,0,-6.8685,-6.872,-6.9009,-6.8878,-6.8914,-6.8977,-6.9056,-6.9064,-6.9114,-6.9187,-6.9198,-6.9125,-6.9263,-6.929,-6.9446,-6.9527,-6.9383,-6.9394,-6.9857,-6.9866,-6.9874,-6.9949,0,0,0,0,0,0,-6.8674,-6.8717,-6.8785,-6.888,-6.8921,-6.9144,-6.9061,-6.9071,-6.9136,-6.913,-6.9228,-6.9239,-6.9261,-6.9427,-6.9458,-6.9541,-6.9404,-6.985,-6.9861,-6.9871,-6.9939,-6.9959,-6.9976,0,0,0,0,0,-6.866,-6.8798,-6.8788,-6.8823,-6.9008,-6.9149,-6.9173,-6.9195,-6.9143,-6.9211,-6.9258,-6.9236,-6.9514,-6.9443,-6.9478,-6.9566,-6.9845,-6.9858,-6.987,-6.9931,-6.9955,-6.9975,0,0,0,0,0,0,-6.8711,-6.8811,-6.8801,-6.8974,-6.9054,-6.9143,-6.923,-6.9219,-6.9314,-6.9304,-6.9328,-6.935,-6.9507,-6.9553,-6.9473,-6.9743,-6.9672,-6.9692,-6.9707,-6.973,-6.9748,-6.9732,-6.9414,0,0,0,0,0,-6.8742,-6.8849,-6.8931,-6.9076,-6.9116,-6.9167,-6.9229,-6.924,-6.9322,-6.9355,-6.9413,-6.9494,-6.9599,-6.9668,-6.9769,-6.9948,-6.9967,-7.0026,-7.0044,-7.0058,-7.0074,-7.017,-7.0196,-6.9918,-6.9918,-6.9918,0,0,-6.8808,-6.8876,-6.8942,-6.9088,-6.915,-6.9259,-6.9195,-6.9313,-6.9394,-6.9373,-6.9522,-6.9569,-6.966,-6.9828,-6.9904,-6.987,-7.0156,-7.0074,-7.0085,-7.0093,-7.0186,-7.0212,-7.0235,-6.9927,-6.9925,-6.9924,0,0,-6.8983,-6.9047,-6.9173,-6.9238,-6.9333,-6.9366,-6.9397,-6.9489,-6.9518,-6.9669,-6.9655,-6.9753,-6.9934,-6.9999,-7.0056,-7.0258,-7.0241,-7.0291,-7.0384,-7.0477,-7.0499,-7.0518,-7.0588,-7.0613,-7.0308,-7.0308,-7.0308,0,-6.9052,-6.9216,-6.924,-6.936,-6.9424,-6.9411,-6.9539,-6.96,-6.9724,-6.9768,-6.973,-6.9957,-7.0018,-7.0199,-7.0249,-7.0297,-7.0331,-7.0278,-7.0494,-7.0514,-7.0532,-7.0599,-7.0625,-7.0313,-7.0312,-7.0312,-7.0311,0,-6.9295,-6.941,-6.9501,-6.962,-6.9695,-6.9819,-6.9861,-6.9934,-6.9939,-6.9976,-7.0129,-7.0203,-7.0318,-7.0363,-7.0369,-7.0545,-7.0521,-7.0489,-7.0417,-7.0564,-7.0626,-7.0652,-7.032,-7.0318,-7.0317,-7.0316,0,0,-6.9504,-6.9636,-6.9669,-6.9722,-6.9828,-6.9917,-7.004,-7.0153,-7.0214,-7.0302,-7.0404,-7.0559,-7.0529,-7.0594,-7.0608,-7.0691,-7.0843,-7.0648,-7.065,-7.0678,-7.1039,-7.106,-7.1089,-7.0834,-7.0839,-7.0843,-7.103,0,-6.9685,-6.9902,-6.9928,-7.0121,-7.0226,-7.0217,-7.0324,-7.04,-7.0439,-7.0533,-7.0576,-7.0684,-7.0639,-7.0677,-7.0759,-7.0807,-7.0915,-7.0794,-7.0927,-7.0931,-7.09,-7.1122,-7.1145,-7.1318,-7.1055,-7.1059,-7.1062,0,-6.9926,-7.0019,-7.0222,-7.0313,-7.0358,-7.0454,-7.0559,-7.0651,-7.0737,-7.0759,-7.0833,-7.0836,-7.0963,-7.089,-7.1064,-7.0981,-7.1038,-7.107,-7.1077,-7.1087,-7.1003,-7.1134,-7.1374,-7.1398,-7.1102,-7.1099,-7.1096,0,-7.0053,-7.023,-7.0374,-7.0421,-7.0532,-7.0599,-7.0648,-7.073,-7.0796,-7.0889,-7.0932,-7.1039,-7.1096,-7.1178,-7.121,-7.1155,-7.1382,-7.1312,-7.1403,-7.1402,-7.1447,-7.1443,-7.1695,-7.1491,-7.149,-7.149,-7.1489,0,-7.0251,-7.0375,-7.0433,-7.0521,-7.0659,-7.0688,-7.0825,-7.0871,-7.0944,-7.1041,-7.1041,-7.1132,-7.117,-7.1268,-7.1294,-7.1433,-7.146,-7.148,-7.1485,-7.1478,-7.1475,-7.1512,-7.1499,-7.1497,-7.1495,-7.1494,-7.1493,0,-7.0414,-7.0459,-7.0614,-7.0707,-7.0733,-7.0831,-7.091,-7.0995,-7.1034,-7.1156,-7.1186,-7.1247,-7.1361,-7.1402,-7.1542,-7.1559,-7.1719,-7.1716,-7.1689,-7.169,-7.1776,-7.1766,-7.2058,-7.2097,-7.187,-7.1872,-7.1874,0,-7.0536,-7.0631,-7.0734,-7.0798,-7.085,-7.0955,-7.1022,-7.1056,-7.1126,-7.1232,-7.1304,-7.1418,-7.151,-7.1693,-7.1749,-7.1856,-7.1853,-7.1948,-7.1868,-7.1858,-7.185,-7.1842,-7.1851,-7.1961,-7.1963,-7.1965,-7.1967,0,-7.0745,-7.0763,-7.086,-7.0966,-7.1047,-7.1132,-7.1214,-7.1267,-7.1313,-7.1392,-7.1509,-7.1581,-7.1723,-7.1835,-7.1944,-7.1995,-7.1988,-7.1992,-7.2018,-7.201,-7.1989,-7.1998,-7.1725,-7.1984,-7.1983,-7.1981,-7.198,-7.198,-7.0889,-7.0972,-7.1057,-7.1166,-7.1232,-7.1309,-7.1393,-7.1443,-7.1541,-7.1658,-7.1673,-7.1798,-7.1883,-7.2029,-7.2085,-7.2183,-7.2157,-7.2195,-7.2204,-7.2212,-7.2217,-7.1977,-7.2204,-7.2203,-7.2203,-7.2202,-7.2202,0,-7.1095,-7.115,-7.125,-7.1365,-7.1451,-7.1439,-7.153,-7.1602,-7.1712,-7.1792,-7.1883,-7.2017,-7.2126,-7.2192,-7.2302,-7.2367,-7.2367,-7.2395,-7.2388,-7.2399,-7.2235,-7.22,-7.2393,-7.2393,-7.2393,-7.2393,-7.2393,-7.2393,-7.1212,-7.1352,-7.138,-7.1552,-7.1606,-7.1728,-7.1781,-7.1852,-7.1916,-7.2065,-7.2156,-7.2199,-7.2273,-7.2388,-7.2488,-7.2505,-7.2543,-7.2573,-7.2587,-7.2431,-7.2411,-7.2392,-7.2359,-7.2582,-7.2582,-7.2742,-7.2743,-7.2744]},{"header":{"parameterUnit":"m.s-1","parameterCategory":1,"la1":30.2991,"la2":30.254,"lo1":-89.0895,"lo2":-89.0444,"dy":0.0017,"dx":0.0017,"nx":28,"ny":28,"refTime":"2024-04-27T21:00:00:Z","depth":0,"parameterNumber":3,"parameterNumberName":"V-component_of_WINDS"},"data":[0,0,0,0,0,0,0,0,0,0,0,0,0,0,0,0,0,0,0,0,0,0,0,0,0,0,0,0,0,0,0,0,0,0,0,0,0,0,0,0,0,0,0,0,0,0,0,0,0,0,0,0,0,0,0,0,0,0,3.4364,3.4364,0,3.4365,3.4365,3.4365,3.4303,3.4302,3.43,3.4299,3.4299,3.43,3.4302,0,0,0,0,0,0,0,0,0,0,0,0,0,3.4308,3.4309,3.4364,3.4364,3.4364,3.4365,3.4365,3.4365,3.4304,3.4302,3.43,3.4298,3.4298,3.43,3.4302,0,0,0,0,0,0,0,0,0,0,0,0,0,3.4323,3.431,3.4364,3.4333,3.4331,3.4365,3.4365,3.4365,3.4304,3.4302,3.4299,3.4297,3.4298,3.43,3.4302,3.4365,0,0,3.4309,3.431,0,0,0,0,0,0,0,0,3.4322,3.4325,3.4338,3.4336,3.4333,3.4332,3.4345,3.4365,3.4305,3.4314,3.4298,3.4296,3.4312,3.4313,3.4318,3.4365,3.4365,3.4309,3.4311,3.4312,3.4312,0,0,0,0,0,0,0,3.4321,3.4325,3.4364,3.4338,3.4335,3.432,3.4319,3.4349,3.4327,3.4313,3.4309,3.431,3.431,3.4316,3.4318,3.4365,3.4309,3.4311,3.4313,3.4314,3.4465,3.4467,0,0,0,0,0,0,3.4324,3.4324,3.4364,3.4364,3.4321,3.4323,3.4322,3.4334,3.4326,3.4322,3.4312,3.4307,3.4313,3.4315,3.4317,3.4391,3.4312,3.4314,3.4315,3.4462,3.4465,3.4468,0,0,0,0,0,0,3.4323,3.4329,3.4364,3.4343,3.4346,3.4326,3.4341,3.4336,3.4342,3.4325,3.4321,3.4322,3.4311,3.4314,3.4354,3.439,3.4315,3.4317,3.4459,3.4463,3.4467,3.4538,0,0,0,0,0,0,3.4322,3.4329,3.4352,3.4344,3.4348,3.4401,3.4343,3.4337,3.4346,3.434,3.4334,3.4331,3.431,3.4351,3.4356,3.4392,3.4319,3.4456,3.4461,3.4466,3.4532,3.4544,3.4554,0,0,0,0,0,3.432,3.4372,3.4354,3.4359,3.4377,3.4403,3.4405,3.438,3.4349,3.4373,3.4362,3.4331,3.4386,3.4356,3.4361,3.4398,3.4453,3.4459,3.4465,3.4527,3.4542,3.4554,0,0,0,0,0,0,3.4384,3.437,3.435,3.4401,3.4404,3.4393,3.4421,3.4396,3.4408,3.4401,3.437,3.4369,3.4414,3.441,3.4377,3.4459,3.4414,3.4421,3.4459,3.4473,3.4483,3.4482,3.4321,0,0,0,0,0,3.4404,3.4427,3.4413,3.4459,3.4462,3.4442,3.4452,3.4433,3.4435,3.4436,3.4428,3.443,3.4448,3.446,3.4476,3.4532,3.453,3.456,3.4571,3.458,3.4586,3.4616,3.4629,3.4488,3.4488,3.4488,0,0,3.4445,3.4441,3.4457,3.4472,3.4472,3.4496,3.4443,3.447,3.4488,3.444,3.4476,3.4471,3.4472,3.4521,3.4542,3.4519,3.4625,3.4587,3.4595,3.4596,3.4623,3.4636,3.4648,3.4492,3.4491,3.4491,0,0,3.4533,3.4532,3.457,3.4572,3.4573,3.4559,3.4569,3.4562,3.4557,3.4594,3.4558,3.4579,3.461,3.4612,3.4617,3.4708,3.4679,3.4714,3.4769,3.4798,3.481,3.4819,3.4851,3.4863,3.472,3.4721,3.4721,0,3.4583,3.4618,3.4593,3.4623,3.463,3.4589,3.4628,3.463,3.4636,3.4643,3.4617,3.4656,3.4654,3.4702,3.4725,3.473,3.474,3.4713,3.481,3.482,3.4828,3.4858,3.487,3.4725,3.4724,3.4724,3.4723,0,3.4681,3.4706,3.4736,3.4744,3.4756,3.479,3.4769,3.4784,3.4765,3.4754,3.4792,3.4789,3.4803,3.4813,3.4794,3.4859,3.4845,3.4816,3.477,3.4846,3.4874,3.4885,3.4731,3.4729,3.4728,3.4727,0,0,3.4806,3.4801,3.4812,3.4815,3.4815,3.4833,3.4866,3.488,3.4893,3.49,3.4926,3.4954,3.4927,3.4934,3.4915,3.4941,3.5012,3.4908,3.4907,3.4927,3.5083,3.5104,3.5118,3.4994,3.4996,3.4998,3.5083,0,3.489,3.4945,3.4924,3.4981,3.5004,3.4966,3.4994,3.4997,3.4989,3.5006,3.4997,3.5017,3.498,3.4984,3.5008,3.4998,3.5043,3.4992,3.5017,3.5018,3.5017,3.5132,3.5155,3.5235,3.5093,3.5095,3.5097,0,3.4995,3.5006,3.5066,3.5062,3.5071,3.5097,3.5108,3.5126,3.5129,3.5121,3.5129,3.5105,3.5136,3.5092,3.5135,3.5101,3.5111,3.5108,3.511,3.511,3.5061,3.5135,3.526,3.5272,3.5113,3.5112,3.5111,0,3.5079,3.511,3.5149,3.5154,3.515,3.5169,3.5169,3.5169,3.5179,3.519,3.5196,3.5211,3.5218,3.523,3.521,3.518,3.5256,3.521,3.525,3.525,3.5266,3.5265,3.5394,3.5274,3.5274,3.5274,3.5274,0,3.5175,3.5212,3.5187,3.5212,3.5253,3.5229,3.527,3.5265,3.5266,3.5289,3.5257,3.5279,3.5252,3.5272,3.5257,3.5295,3.5298,3.5293,3.5288,3.5295,3.5295,3.5299,3.5293,3.5277,3.5276,3.5276,3.5275,0,3.5275,3.526,3.5301,3.5295,3.5295,3.5325,3.532,3.5342,3.5332,3.5361,3.5367,3.5351,3.5372,3.5354,3.5375,3.5365,3.5415,3.5403,3.5414,3.541,3.545,3.5447,3.5585,3.5602,3.5473,3.5474,3.5475,0,3.5336,3.5365,3.5363,3.5376,3.5377,3.5399,3.541,3.5387,3.54,3.5406,3.5427,3.5446,3.546,3.5495,3.5486,3.5501,3.5489,3.5536,3.549,3.5497,3.5488,3.5486,3.5489,3.5545,3.5546,3.5548,3.5549,0,3.5446,3.5438,3.5455,3.547,3.5484,3.5495,3.5502,3.5515,3.5492,3.5508,3.553,3.554,3.5562,3.5581,3.5593,3.5592,3.5567,3.5564,3.5573,3.558,3.5585,3.5582,3.5438,3.556,3.5559,3.5558,3.5557,3.5557,3.5528,3.5552,3.5555,3.5575,3.5579,3.5587,3.5608,3.5601,3.5619,3.5635,3.5621,3.5647,3.565,3.5664,3.5667,3.5687,3.5667,3.5681,3.5685,3.5688,3.5694,3.5583,3.5689,3.5689,3.5688,3.5688,3.5688,0,3.5636,3.5636,3.5655,3.5668,3.5684,3.566,3.5668,3.5683,3.5707,3.5711,3.5726,3.5751,3.577,3.5762,3.5779,3.5796,3.5785,3.5801,3.5799,3.5799,3.5711,3.57,3.581,3.581,3.581,3.581,3.581,3.581,3.5694,3.5733,3.5725,3.5765,3.5765,3.5791,3.5798,3.5805,3.5809,3.5839,3.5855,3.585,3.585,3.5866,3.5882,3.5879,3.5886,3.5907,3.59,3.5817,3.5805,3.5794,3.5783,3.5909,3.5909,3.5986,3.5987,3.5987]}]]